Jackson, TN

11:20 PM CST on December 09, 2019 (GMT -0600)
McKellar-Sipes Regional

Weather History for KMKL - November, 2019

Change the Weather History Date:

Sunday, November 17, 2019

  Actual Average Record
Temperature  
Mean Temperature 40 °F 50 °F  
Max Temperature 55 °F 61 °F 83 °F (2016)
Min Temperature 24 °F 38 °F 17 °F (1959)
Degree Days  
Heating Degree Days 26 16  
Month to date heating degree days 407 216  
Since 1 July heating degree days 601 430  
Cooling Degree Days 0 0  
Month to date cooling degree days 0 2  
Year to date cooling degree days 1948 1693  
Moisture  
Dew Point 32 °F    
Average Humidity 77    
Maximum Humidity 96    
Minimum Humidity 46    
Precipitation  
Precipitation 0.00 in 0.17 in 2.47 in (2015)
Month to date precipitation 1.42 2.54  
Year to date precipitation 58.16 45.56  
Sea Level Pressure  
Sea Level Pressure 30.03 in    
Wind  
Wind Speed 1 mph ()    
Max Wind Speed 9 mph    
Max Gust Speed 13 mph    
Visibility 8.8 miles    
Events      
T = Trace of Precipitation, MM = Missing Value Source: Averaged Metar Reports

Daily Weather History Graph

Daily Weather History Graph

Search for Another Location

Airport or City:

Astronomy

Nov. 17, 2019 Rise Set
Actual Time 6:33 AM CST 4:47 PM CST
Civil Twilight 6:05 AM CST 5:14 PM CST
Nautical Twilight 5:34 AM CST 5:45 PM CST
Astronomical Twilight 5:04 AM CST 6:16 PM CST
Moon 9:26 PM CST (11/17) 11:15 AM CST (11/17)
Length of Visible Light 11h 09m
Length of Day
10h 14m
Waning Gibbous, 73% of the Moon is Illuminated
Nov 17
Waning Gibbous
Nov 19
Last Quarter
Nov 26
New
Dec 4
First Quarter
Dec 11
Full

Hourly Weather History & Observations

Time (CST) Temp. Windchill Dew Point Humidity Pressure Visibility Wind Dir Wind Speed Gust Speed Precip Events Conditions
12:53 AM 28.0 °F - 26.1 °F 92% 30.11 in 10.0 mi Calm Calm - N/A   Clear
1:53 AM 28.9 °F - 27.0 °F 92% 30.14 in 9.0 mi Calm Calm - N/A   Clear
2:53 AM 28.9 °F - 27.0 °F 92% 30.13 in 8.0 mi Calm Calm - N/A   Clear
3:53 AM 26.1 °F - 25.0 °F 96% 30.12 in 7.0 mi Calm Calm - N/A   Clear
4:53 AM 26.1 °F - 25.0 °F 96% 30.11 in 7.0 mi Calm Calm - N/A   Clear
5:53 AM 26.1 °F - 25.0 °F 96% 30.11 in 5.0 mi Calm Calm - N/A   Clear
6:53 AM 26.1 °F - 24.1 °F 92% 30.11 in 5.0 mi Calm Calm - N/A   Clear
7:53 AM 33.1 °F - 30.9 °F 92% 30.11 in 6.0 mi Calm Calm - N/A   Clear
8:53 AM 39.9 °F - 34.0 °F 79% 30.10 in 8.0 mi Calm Calm - N/A   Clear
9:53 AM 45.0 °F - 35.1 °F 68% 30.09 in 8.0 mi Calm Calm - N/A   Clear
11:53 AM 53.1 °F - 35.1 °F 50% 30.04 in 10.0 mi NW 5.8 mph - N/A   Clear
12:53 PM 54.0 °F - 34.0 °F 47% 30.01 in 10.0 mi NW 8.1 mph - N/A   Clear
1:53 PM 54.0 °F - 35.1 °F 49% 29.98 in 10.0 mi NW 3.5 mph - N/A   Clear
2:53 PM 53.1 °F - 35.1 °F 50% 29.95 in 10.0 mi Calm Calm - N/A   Clear
3:53 PM 52.0 °F - 36.0 °F 54% 29.95 in 10.0 mi NW 3.5 mph - N/A   Clear
4:53 PM 48.0 °F - 35.1 °F 61% 29.95 in 10.0 mi Calm Calm - N/A   Clear
5:53 PM 44.1 °F - 35.1 °F 71% 29.96 in 10.0 mi Calm Calm - N/A   Clear
6:53 PM 43.0 °F - 36.0 °F 76% 29.94 in 10.0 mi Calm Calm - N/A   Overcast
7:53 PM 43.0 °F - 37.0 °F 80% 29.94 in 10.0 mi Calm Calm - N/A   Scattered Clouds
8:53 PM 42.1 °F - 37.0 °F 82% 29.94 in 10.0 mi Calm Calm - N/A   Overcast
9:53 PM 41.0 °F - 35.1 °F 79% 29.94 in 10.0 mi Calm Calm - N/A   Mostly Cloudy
10:53 PM 41.0 °F - 36.0 °F 82% 29.93 in 10.0 mi Calm Calm - N/A   Overcast
11:53 PM 37.9 °F 35.5 °F 35.1 °F 89% 29.92 in 10.0 mi South 3.5 mph - N/A   Overcast